DW7780 Weather Reports


Display with metric or nautical units.
time (UTC)temp
F
wind
direction
speed
MPH
gust
MPH
rain 1hr
in
rain 24hr
in
rain mn
in
humidity
%
barometer
mb
20260502163031 56 288 0.0 5.0 0.00 0.01 0.01 53 1012.6
20260502161529 56 0 0.0 9.0 0.00 0.01 0.01 51 1012.9
20260502151530 52 277 2.0 9.0 0.00 0.01 0.01 63 1012.8
20260502123033 50 328 0.0 5.0 0.01 0.01 0.01 80 1012.8
20260502121536 50 0 0.0 9.0 0.01 0.01 0.01 80 1012.7
20260502114527 49 0 0.0 6.0 0.00 0.00 0.00 84 1012.5
20260502113026 49 0 0.0 0.0 0.00 0.00 0.00 86 1012.2
20260502111530 48 0 0.0 0.0 0.00 0.00 0.00 91 1012.1
20260502110030 47 0 0.0 0.0 0.00 0.00 0.00 91 1011.9
20260502104530 47 0 0.0 0.0 0.00 0.00 0.00 91 1011.7
20260502103031 46 0 0.0 0.0 0.00 0.00 0.00 90 1011.6
20260502101540 46 0 0.0 0.0 0.00 0.00 0.00 90 1011.8
20260502091528 48 0 0.0 0.0 0.00 0.00 0.00 89 1011.4
20260502071528 48 0 0.0 0.0 0.00 0.00 0.00 89 1011.7
20260502070028 48 0 0.0 0.0 0.00 0.00 0.00 88 1011.6
20260502064530 48 0 0.0 0.0 0.00 0.00 0.00 87 1011.7
20260502063030 49 0 0.0 0.0 0.00 0.00 0.00 86 1011.6
20260502061529 49 0 0.0 0.0 0.00 0.00 0.00 85 1011.8
20260502060026 49 0 0.0 0.0 0.00 0.00 0.00 86 1011.6
20260502054530 49 0 0.0 0.0 0.00 0.00 0.00 86 1011.9
20260502053028 49 0 0.0 0.0 0.00 0.00 0.00 84 1012.2
20260502051530 49 0 0.0 0.0 0.00 0.00 0.00 83 1012.1
20260502050035 49 0 0.0 0.0 0.00 0.00 0.00 81 1012.1
20260502044527 49 0 0.0 0.0 0.00 0.00 0.00 82 1012.1
20260502043030 49 0 0.0 0.0 0.00 0.00 0.00 81 1011.8
20260502041542 49 0 0.0 0.0 0.00 0.00 0.00 80 1011.8
20260502040026 49 0 0.0 0.0 0.00 0.00 0.00 81 1011.5
20260502034528 49 0 0.0 0.0 0.00 0.00 0.00 80 1011.5
20260502033031 49 0 0.0 0.0 0.00 0.00 0.00 81 1011.5
20260502031530 49 0 0.0 0.0 0.00 0.00 0.00 80 1011.4
20260502030028 49 0 0.0 0.0 0.00 0.00 0.00 82 1011.5
20260502024528 49 0 0.0 0.0 0.00 0.00 0.00 80 1011.8
20260502023026 48 0 0.0 0.0 0.00 0.00 0.00 79 1011.9
20260502021528 48 0 0.0 0.0 0.00 0.00 0.00 79 1011.9
20260502020028 48 0 0.0 0.0 0.00 0.00 0.00 79 1011.7
20260502014529 48 0 0.0 0.0 0.00 0.00 0.00 79 1011.6
20260502013028 49 0 0.0 0.0 0.00 0.00 0.00 78 1011.5
20260502011530 49 0 0.0 0.0 0.00 0.00 0.00 75 1011.3
20260502010030 51 0 0.0 0.0 0.00 0.00 0.00 72 1011.3
20260502004528 52 0 0.0 0.0 0.00 0.00 0.00 68 1011.1
20260502003025 54 0 0.0 0.0 0.00 0.00 0.00 64 1010.9
20260502001530 55 0 0.0 0.0 0.00 0.00 0.00 62 1010.9
20260502000030 57 0 0.0 0.0 0.00 0.00 0.00 59 1010.8
20260501234528 59 0 0.0 2.0 0.00 0.03 0.00 51 1010.7
20260501233027 60 0 0.0 6.0 0.00 0.03 0.00 48 1010.4
20260501231546 61 0 0.0 3.0 0.00 0.03 0.00 45 1010.3
20260501230029 61 265 0.0 4.0 0.00 0.03 0.00 47 1010.3
20260501224529 62 0 1.0 7.0 0.00 0.03 0.00 44 1010.3
20260501223042 62 0 0.0 4.0 0.00 0.03 0.00 44 1010.3
20260501221529 62 254 2.0 8.0 0.00 0.03 0.00 44 1010.4
20260501220028 62 0 0.0 4.0 0.00 0.03 0.00 44 1010.3
20260501214530 63 0 0.0 9.0 0.00 0.03 0.00 42 1010.3
20260501213033 64 267 2.0 7.0 0.00 0.03 0.00 40 1010.4
20260501211529 64 267 1.0 7.0 0.00 0.03 0.00 40 1010.4
20260501210031 64 0 2.0 8.0 0.00 0.03 0.00 39 1010.3
20260501204528 63 279 2.0 9.0 0.00 0.03 0.00 38 1010.4
20260501203031 63 316 1.0 9.0 0.00 0.03 0.00 39 1010.3
20260501201530 63 0 1.0 7.0 0.00 0.03 0.00 41 1010.3
20260501200030 63 280 1.0 7.0 0.00 0.03 0.00 43 1010.6
20260501194528 62 0 1.0 6.0 0.00 0.03 0.00 41 1010.7
20260501193030 62 0 1.0 8.0 0.00 0.03 0.00 42 1010.9
20260501191527 62 0 3.0 9.0 0.00 0.03 0.00 46 1011.1
20260501190026 61 0 0.0 8.0 0.00 0.03 0.00 46 1011.3
20260501184528 61 255 2.0 8.0 0.00 0.03 0.00 49 1011.5
20260501183029 61 248 2.0 7.0 0.00 0.03 0.00 46 1011.5
20260501181528 61 0 3.0 8.0 0.00 0.03 0.00 45 1011.6
20260501180027 61 275 0.0 9.0 0.00 0.03 0.00 45 1011.8
20260501174535 60 206 1.0 9.0 0.00 0.03 0.00 45 1011.9
20260501173027 60 0 0.0 6.0 0.00 0.03 0.00 48 1012.0
20260501171530 59 0 0.0 7.0 0.00 0.03 0.00 48 1012.2